Météo par heure à A dos Cunhados

Ce jour, 2 Décembre, Mercredi

Heure Température Précipitation Vent Pression Humidité
00:00 +11°C° 0 mm 1 m/s 756 mmHg 79%
01:00 +10°C° 0 mm 2 m/s 756 mmHg 78%
02:00 +10°C° 0 mm 2 m/s 755 mmHg 76%
03:00 +10°C° 0 mm 2 m/s 755 mmHg 78%
04:00 +9°C° 0 mm 2 m/s 755 mmHg 80%
05:00 +9°C° 0 mm 2 m/s 755 mmHg 82%
06:00 +10°C° 0 mm 2 m/s 754 mmHg 82%
07:00 +12°C° 0 mm 2 m/s 754 mmHg 81%
08:00 +12°C° 0 mm 1 m/s 754 mmHg 81%
09:00 +14°C° 0 mm 2 m/s 754 mmHg 74%
10:00 +16°C° 0 mm 2 m/s 754 mmHg 68%
11:00 +17°C° 0 mm 2 m/s 754 mmHg 61%
12:00 +17°C° 0 mm 3 m/s 753 mmHg 60%
13:00 +17°C° 0 mm 3 m/s 753 mmHg 59%
14:00 +17°C° 0 mm 3 m/s 753 mmHg 58%
15:00 +14°C° 0 mm 3 m/s 753 mmHg 63%
16:00 +13°C° 0 mm 3 m/s 753 mmHg 68%
17:00 +11°C° 0 mm 3 m/s 753 mmHg 73%
18:00 +11°C° 0 mm 3 m/s 753 mmHg 73%
19:00 +10°C° 0 mm 3 m/s 753 mmHg 73%
20:00 +10°C° 0 mm 3 m/s 754 mmHg 72%
21:00 +9°C° 0 mm 3 m/s 754 mmHg 71%
22:00 +8°C° 0 mm 4 m/s 754 mmHg 69%
23:00 +7°C° 0 mm 4 m/s 754 mmHg 68%

Demain, 3 Décembre, Jeudi

Heure Température Précipitation Vent Pression Humidité
00:00 +7°C° 0 mm 4 m/s 754 mmHg 67%
01:00 +6°C° 0 mm 4 m/s 754 mmHg 67%
02:00 +6°C° 0 mm 4 m/s 753 mmHg 67%
03:00 +7°C° 0 mm 3 m/s 753 mmHg 67%
04:00 +5°C° 0 mm 3 m/s 753 mmHg 67%
05:00 +5°C° 0 mm 3 m/s 753 mmHg 68%
06:00 +6°C° 0 mm 2 m/s 753 mmHg 66%
07:00 +7°C° 0 mm 2 m/s 753 mmHg 64%
08:00 +8°C° 0 mm 2 m/s 753 mmHg 62%
09:00 +11°C° 0 mm 1 m/s 753 mmHg 57%
10:00 +13°C° 0 mm 1 m/s 753 mmHg 52%
11:00 +15°C° 0 mm 1 m/s 753 mmHg 46%
12:00 +15°C° 0 mm 2 m/s 752 mmHg 53%
13:00 +14°C° 0 mm 3 m/s 752 mmHg 61%
14:00 +14°C° 0 mm 5 m/s 751 mmHg 68%
15:00 +13°C° 0.1 mm 5 m/s 751 mmHg 71%
16:00 +13°C° 0.1 mm 6 m/s 751 mmHg 73%
17:00 +13°C° 0.1 mm 6 m/s 751 mmHg 76%
18:00 +11°C° 0.1 mm 7 m/s 750 mmHg 77%
19:00 +11°C° 0.1 mm 8 m/s 750 mmHg 78%
20:00 +11°C° 0.1 mm 8 m/s 750 mmHg 78%
21:00 +11°C° 0.2 mm 9 m/s 749 mmHg 77%
22:00 +11°C° 0.2 mm 9 m/s 749 mmHg 76%
23:00 +11°C° 0.2 mm 9 m/s 748 mmHg 75%

Après-demain, 4 Décembre, Vendredi

Heure Température Précipitation Vent Pression Humidité
00:00 +11°C° 0.3 mm 10 m/s 747 mmHg 75%
01:00 +12°C° 0.3 mm 10 m/s 747 mmHg 76%
02:00 +12°C° 0.3 mm 11 m/s 746 mmHg 76%
03:00 +11°C° 0.3 mm 11 m/s 746 mmHg 76%
04:00 +11°C° 0.3 mm 11 m/s 745 mmHg 75%
05:00 +9°C° 0.3 mm 11 m/s 745 mmHg 75%
06:00 +9°C° 0.2 mm 12 m/s 745 mmHg 74%
07:00 +8°C° 0.2 mm 12 m/s 745 mmHg 73%
08:00 +8°C° 0.2 mm 12 m/s 745 mmHg 72%
09:00 +8°C° 0.5 mm 12 m/s 745 mmHg 70%
10:00 +8°C° 0.5 mm 12 m/s 745 mmHg 68%
11:00 +8°C° 0.5 mm 12 m/s 745 mmHg 66%
12:00 +8°C° 0.5 mm 12 m/s 745 mmHg 65%
13:00 +8°C° 0.5 mm 12 m/s 745 mmHg 65%
14:00 +7°C° 0.5 mm 12 m/s 744 mmHg 65%
15:00 +7°C° 0.5 mm 11 m/s 744 mmHg 67%
16:00 +6°C° 0.5 mm 11 m/s 744 mmHg 69%
17:00 +6°C° 0.5 mm 11 m/s 745 mmHg 71%
18:00 +6°C° 0.7 mm 11 m/s 745 mmHg 73%
19:00 +6°C° 0.7 mm 10 m/s 745 mmHg 74%
20:00 +6°C° 0.7 mm 10 m/s 745 mmHg 75%
21:00 +6°C° 0.8 mm 10 m/s 746 mmHg 75%
22:00 +6°C° 0.8 mm 10 m/s 746 mmHg 75%
23:00 +6°C° 0.8 mm 10 m/s 746 mmHg 74%

5 Décembre, Samedi

Heure Température Précipitation Vent Pression Humidité
00:00 +5°C° 0.5 mm 10 m/s 746 mmHg 75%
01:00 +5°C° 0.5 mm 9 m/s 747 mmHg 76%
02:00 +5°C° 0.5 mm 9 m/s 747 mmHg 77%
03:00 +5°C° 0.4 mm 8 m/s 747 mmHg 77%
04:00 +5°C° 0.4 mm 8 m/s 747 mmHg 78%
05:00 +5°C° 0.4 mm 8 m/s 747 mmHg 79%
06:00 +5°C° 0.4 mm 8 m/s 748 mmHg 78%
07:00 +6°C° 0.4 mm 8 m/s 748 mmHg 77%
08:00 +6°C° 0.4 mm 8 m/s 749 mmHg 76%
09:00 +7°C° 0.3 mm 8 m/s 749 mmHg 72%
10:00 +8°C° 0.3 mm 9 m/s 750 mmHg 68%
11:00 +8°C° 0.3 mm 9 m/s 750 mmHg 65%
12:00 +8°C° 0.3 mm 9 m/s 750 mmHg 65%
13:00 +9°C° 0.3 mm 8 m/s 750 mmHg 65%
14:00 +9°C° 0.3 mm 8 m/s 750 mmHg 66%
15:00 +8°C° 0.2 mm 7 m/s 750 mmHg 70%
16:00 +6°C° 0.2 mm 7 m/s 751 mmHg 73%
17:00 +5°C° 0.2 mm 6 m/s 751 mmHg 77%
18:00 +5°C° 0.2 mm 6 m/s 751 mmHg 78%
19:00 +5°C° 0.2 mm 6 m/s 752 mmHg 79%
20:00 +5°C° 0.2 mm 6 m/s 752 mmHg 80%
21:00 +6°C° 0.2 mm 7 m/s 752 mmHg 79%
22:00 +6°C° 0.2 mm 7 m/s 752 mmHg 79%
23:00 +6°C° 0.2 mm 7 m/s 752 mmHg 79%

6 Décembre, Dimanche

Heure Température Précipitation Vent Pression Humidité
00:00 +6°C° 0.1 mm 7 m/s 752 mmHg 79%
01:00 +6°C° 0.1 mm 7 m/s 752 mmHg 79%
02:00 +7°C° 0.1 mm 6 m/s 752 mmHg 79%
03:00 +8°C° 0.1 mm 7 m/s 752 mmHg 79%
04:00 +8°C° 0.1 mm 7 m/s 752 mmHg 79%
05:00 +9°C° 0.1 mm 7 m/s 752 mmHg 79%
06:00 +9°C° 0.1 mm 8 m/s 751 mmHg 80%
07:00 +10°C° 0.1 mm 8 m/s 751 mmHg 80%
08:00 +10°C° 0.1 mm 9 m/s 751 mmHg 81%
09:00 +11°C° 0.8 mm 10 m/s 751 mmHg 80%
10:00 +12°C° 0.8 mm 10 m/s 751 mmHg 80%
11:00 +12°C° 0.8 mm 11 m/s 751 mmHg 80%
12:00 +12°C° 0.6 mm 10 m/s 750 mmHg 82%
13:00 +12°C° 0.6 mm 9 m/s 750 mmHg 84%
14:00 +12°C° 0.6 mm 8 m/s 750 mmHg 86%
15:00 +11°C° 0.9 mm 7 m/s 750 mmHg 88%
16:00 +11°C° 0.9 mm 7 m/s 750 mmHg 90%
17:00 +11°C° 0.9 mm 6 m/s 750 mmHg 92%
18:00 +12°C° 0.3 mm 5 m/s 751 mmHg 92%
19:00 +10°C° 0.3 mm 5 m/s 751 mmHg 92%
20:00 +10°C° 0.3 mm 5 m/s 751 mmHg 91%
21:00 +11°C° 0.2 mm 4 m/s 751 mmHg 91%
22:00 +11°C° 0.2 mm 4 m/s 752 mmHg 92%
23:00 +11°C° 0.2 mm 3 m/s 752 mmHg 92%

7 Décembre, Lundi

Heure Température Précipitation Vent Pression Humidité
00:00 +11°C° 0 mm 3 m/s 752 mmHg 91%
01:00 +10°C° 0 mm 3 m/s 752 mmHg 90%
02:00 +10°C° 0 mm 2 m/s 752 mmHg 89%
03:00 +12°C° 0.1 mm 2 m/s 752 mmHg 88%
04:00 +12°C° 0.1 mm 2 m/s 752 mmHg 88%
05:00 +12°C° 0.1 mm 2 m/s 752 mmHg 88%
06:00 +13°C° 0.1 mm 2 m/s 752 mmHg 87%
07:00 +13°C° 0.1 mm 2 m/s 752 mmHg 87%
08:00 +13°C° 0.1 mm 2 m/s 753 mmHg 87%
09:00 +13°C° 0.3 mm 3 m/s 753 mmHg 87%
10:00 +13°C° 0.3 mm 4 m/s 753 mmHg 88%
11:00 +13°C° 0.3 mm 5 m/s 753 mmHg 88%
12:00 +14°C° 0.4 mm 6 m/s 752 mmHg 86%
13:00 +15°C° 0.4 mm 7 m/s 752 mmHg 84%
14:00 +15°C° 0.4 mm 8 m/s 751 mmHg 81%
15:00 +15°C° 0.1 mm 8 m/s 751 mmHg 83%
16:00 +15°C° 0.1 mm 8 m/s 751 mmHg 84%
17:00 +13°C° 0.1 mm 8 m/s 751 mmHg 86%
18:00 +13°C° 1.1 mm 8 m/s 751 mmHg 88%
19:00 +15°C° 1.1 mm 9 m/s 751 mmHg 90%
20:00 +15°C° 1.1 mm 9 m/s 751 mmHg 92%
21:00 +15°C° 1.2 mm 9 m/s 750 mmHg 90%
22:00 +14°C° 1.2 mm 10 m/s 750 mmHg 89%
23:00 +14°C° 1.2 mm 10 m/s 749 mmHg 88%
Voir plus

Nous avons besoin de votre consentement

Meteoprog et ses fournisseurs de services peuvent stocker et accéder à des données personnelles telles que des cookies, des identifiants d'appareils ou d'autres technologies similaires sur votre appareil et traiter ces données pour personnaliser le contenu et les publicités, ainsi que pour fournir des fonctionnalités de médias sociaux et analyser le trafic.

  • Stocker et/ou accéder à des informations sur votre appareil

    Des cookies, des identifiants d'appareils ou d'autres informations peuvent être stockés ou accessibles sur votre appareil aux fins indiquées ci-dessus.

  • Annonces et contenus personnalisés, mesure des annonces et des contenus, connaissance de l'audience et développement de produits

    Les annonces et le contenu peuvent être personnalisés en fonction d'un profil. D'autres données peuvent être ajoutées pour mieux personnaliser les annonces et le contenu. Les performances des publicités et du contenu peuvent être mesurées. Il est possible d'obtenir des informations sur le public qui a vu les publicités et le contenu. Ces données peuvent être utilisées pour développer ou améliorer l'expérience de l'utilisateur, les systèmes et les logiciels.

En cliquant sur "J'accepte", vous autorisez l'utilisation de cookies, des identifiants d'appareils, des balises web ou d'autres technologies similaires. Vos paramètres peuvent être modifiés dans le navigateur de votre appareil.

Dans certains cas, des intérêts légitimes peuvent être invoqués plutôt qu'un consentement. Vous pouvez en savoir plus à ce sujet dans notre Politique de confidentialité et de cookies.